When you browse on this site, cookies collect data to enhance your experience and personalize the content and advertising you see.
Visit our Privacy Policy to learn more. By continuing to use the site, you agree to this use of cookies and data.
  • In Spain
  • List of Countries
  • For 7 days
  • Water Temperature
  • Satellite Maps
  • Weather Map
  • Weather Widgets
  • user-avatar
    Login

    Hourly Weather Sumgayit

    Today, 19 December, Wednesday

    Time Temperature Precipitation Wind Pressure Humidity
    00:00 +4°C° 0 mm 4 mps 749 mmHg 81%
    01:00 +4°C° 0 mm 3 mps 749 mmHg 81%
    02:00 +4°C° 0 mm 3 mps 749 mmHg 81%
    03:00 +4°C° 0 mm 3 mps 748 mmHg 81%
    04:00 +5°C° 0 mm 2 mps 749 mmHg 81%
    05:00 +5°C° 0 mm 2 mps 749 mmHg 81%
    06:00 +5°C° 0 mm 2 mps 749 mmHg 81%
    07:00 +5°C° 0 mm 2 mps 749 mmHg 79%
    08:00 +5°C° 0 mm 2 mps 750 mmHg 78%
    09:00 +6°C° 0 mm 2 mps 750 mmHg 74%
    10:00 +5°C° 0 mm 3 mps 750 mmHg 73%
    11:00 +5°C° 0 mm 3 mps 750 mmHg 72%
    12:00 +7°C° 0 mm 3 mps 750 mmHg 70%
    13:00 +7°C° 0 mm 3 mps 750 mmHg 71%
    14:00 +7°C° 0 mm 3 mps 749 mmHg 72%
    15:00 +6°C° 0 mm 4 mps 749 mmHg 73%
    16:00 +5°C° 0 mm 4 mps 749 mmHg 75%
    17:00 +5°C° 0 mm 4 mps 749 mmHg 77%
    18:00 +5°C° 0 mm 4 mps 749 mmHg 79%
    19:00 +5°C° 0 mm 4 mps 749 mmHg 80%
    20:00 +5°C° 0 mm 3 mps 749 mmHg 81%
    21:00 +5°C° 0 mm 3 mps 749 mmHg 81%
    22:00 +5°C° 0 mm 3 mps 749 mmHg 82%
    23:00 +5°C° 0 mm 3 mps 749 mmHg 82%

    Tomorrow, 20 December, Thursday

    Time Temperature Precipitation Wind Pressure Humidity
    00:00 +5°C° 0 mm 3 mps 749 mmHg 82%
    01:00 +5°C° 0 mm 3 mps 748 mmHg 82%
    02:00 +5°C° 0 mm 3 mps 748 mmHg 82%
    03:00 +5°C° 0 mm 3 mps 748 mmHg 82%
    04:00 +5°C° 0 mm 3 mps 748 mmHg 82%
    05:00 +5°C° 0 mm 3 mps 748 mmHg 82%
    06:00 +5°C° 0 mm 3 mps 748 mmHg 82%
    07:00 +7°C° 0.2 mm 3 mps 748 mmHg 82%
    08:00 +6°C° 0.2 mm 4 mps 748 mmHg 82%
    09:00 +6°C° 0.2 mm 4 mps 748 mmHg 81%
    10:00 +7°C° 0.5 mm 4 mps 747 mmHg 82%
    11:00 +7°C° 0.5 mm 4 mps 747 mmHg 83%
    12:00 +7°C° 0.5 mm 4 mps 746 mmHg 84%
    13:00 +7°C° 0.3 mm 4 mps 746 mmHg 85%
    14:00 +7°C° 0.3 mm 4 mps 746 mmHg 86%
    15:00 +7°C° 0.3 mm 4 mps 746 mmHg 87%
    16:00 +7°C° 0.2 mm 4 mps 746 mmHg 87%
    17:00 +7°C° 0.2 mm 4 mps 746 mmHg 88%
    18:00 +7°C° 0.2 mm 4 mps 746 mmHg 88%
    19:00 +7°C° 0.3 mm 4 mps 746 mmHg 88%
    20:00 +7°C° 0.3 mm 3 mps 746 mmHg 87%
    21:00 +7°C° 0.3 mm 3 mps 746 mmHg 87%
    22:00 +7°C° 0.5 mm 3 mps 746 mmHg 88%
    23:00 +7°C° 0.5 mm 3 mps 746 mmHg 88%

    Day after tomorrow, 21 December, Friday

    Time Temperature Precipitation Wind Pressure Humidity
    00:00 +7°C° 0.5 mm 3 mps 746 mmHg 88%
    01:00 +5°C° 0.7 mm 4 mps 746 mmHg 88%
    02:00 +5°C° 0.7 mm 4 mps 746 mmHg 88%
    03:00 +5°C° 0.7 mm 5 mps 746 mmHg 88%
    04:00 +5°C° 0.5 mm 5 mps 746 mmHg 87%
    05:00 +5°C° 0.5 mm 5 mps 746 mmHg 86%
    06:00 +5°C° 0.5 mm 5 mps 746 mmHg 86%
    07:00 +4°C° 0.2 mm 6 mps 747 mmHg 84%
    08:00 +4°C° 0.2 mm 6 mps 747 mmHg 83%
    09:00 +4°C° 0.2 mm 6 mps 747 mmHg 82%
    10:00 +4°C° 0.1 mm 6 mps 747 mmHg 80%
    11:00 +4°C° 0.1 mm 6 mps 747 mmHg 79%
    12:00 +4°C° 0.1 mm 6 mps 747 mmHg 78%
    13:00 +4°C° 0 mm 6 mps 747 mmHg 78%
    14:00 +5°C° 0 mm 5 mps 747 mmHg 78%
    15:00 +5°C° 0 mm 5 mps 747 mmHg 77%
    16:00 +5°C° 0 mm 5 mps 747 mmHg 79%
    17:00 +5°C° 0 mm 5 mps 748 mmHg 80%
    18:00 +5°C° 0 mm 5 mps 748 mmHg 82%
    19:00 +3°C° 0 mm 5 mps 748 mmHg 82%
    20:00 +4°C° 0 mm 4 mps 748 mmHg 82%
    21:00 +4°C° 0 mm 4 mps 748 mmHg 82%
    22:00 +4°C° 0 mm 4 mps 748 mmHg 83%
    23:00 +4°C° 0 mm 3 mps 748 mmHg 83%

    22 December, Saturday

    Time Temperature Precipitation Wind Pressure Humidity
    00:00 +4°C° 0 mm 3 mps 747 mmHg 84%
    01:00 +5°C° 0 mm 2 mps 747 mmHg 84%
    02:00 +5°C° 0 mm 2 mps 747 mmHg 85%
    03:00 +5°C° 0 mm 2 mps 747 mmHg 85%
    04:00 +6°C° 0 mm 1 mps 747 mmHg 85%
    05:00 +6°C° 0 mm 1 mps 747 mmHg 85%
    06:00 +6°C° 0 mm 1 mps 747 mmHg 85%
    07:00 +6°C° 0 mm 1 mps 747 mmHg 84%
    08:00 +6°C° 0 mm 1 mps 747 mmHg 83%
    09:00 +6°C° 0 mm 1 mps 747 mmHg 81%
    10:00 +6°C° 0 mm 2 mps 746 mmHg 78%
    11:00 +7°C° 0 mm 2 mps 746 mmHg 75%
    12:00 +7°C° 0 mm 3 mps 746 mmHg 72%
    13:00 +7°C° 0 mm 3 mps 745 mmHg 71%
    14:00 +8°C° 0 mm 3 mps 745 mmHg 70%
    15:00 +8°C° 0 mm 3 mps 745 mmHg 69%
    16:00 +7°C° 0 mm 3 mps 745 mmHg 72%
    17:00 +7°C° 0 mm 3 mps 745 mmHg 75%
    18:00 +7°C° 0 mm 3 mps 745 mmHg 78%
    19:00 +5°C° 0 mm 3 mps 745 mmHg 78%
    20:00 +6°C° 0 mm 2 mps 745 mmHg 79%
    21:00 +6°C° 0 mm 2 mps 746 mmHg 80%
    22:00 +6°C° 0 mm 2 mps 745 mmHg 80%
    23:00 +6°C° 0 mm 2 mps 745 mmHg 80%

    23 December, Sunday

    Time Temperature Precipitation Wind Pressure Humidity
    00:00 +6°C° 0 mm 2 mps 745 mmHg 80%
    01:00 +6°C° 0 mm 2 mps 745 mmHg 80%
    02:00 +5°C° 0 mm 2 mps 745 mmHg 81%
    03:00 +6°C° 0 mm 1 mps 745 mmHg 81%
    04:00 +6°C° 0 mm 1 mps 745 mmHg 82%
    05:00 +6°C° 0 mm 1 mps 745 mmHg 83%
    06:00 +6°C° 0 mm 1 mps 744 mmHg 83%
    07:00 +5°C° 0 mm 2 mps 745 mmHg 81%
    08:00 +6°C° 0 mm 2 mps 745 mmHg 79%
    09:00 +6°C° 0 mm 2 mps 745 mmHg 76%
    10:00 +7°C° 0 mm 3 mps 744 mmHg 71%
    11:00 +7°C° 0 mm 4 mps 744 mmHg 66%
    12:00 +8°C° 0 mm 5 mps 744 mmHg 61%
    13:00 +8°C° 0 mm 5 mps 743 mmHg 60%
    14:00 +8°C° 0 mm 5 mps 743 mmHg 60%
    15:00 +8°C° 0 mm 6 mps 742 mmHg 59%
    16:00 +8°C° 0 mm 6 mps 742 mmHg 63%
    17:00 +7°C° 0 mm 6 mps 742 mmHg 67%
    18:00 +5°C° 0 mm 6 mps 742 mmHg 72%
    19:00 +5°C° 0 mm 6 mps 741 mmHg 73%
    20:00 +5°C° 0 mm 6 mps 741 mmHg 74%
    21:00 +5°C° 0 mm 6 mps 741 mmHg 76%
    22:00 +5°C° 0 mm 7 mps 740 mmHg 77%
    23:00 +5°C° 0 mm 7 mps 740 mmHg 78%

    24 December, Monday

    Time Temperature Precipitation Wind Pressure Humidity
    00:00 +5°C° 0 mm 7 mps 739 mmHg 79%
    01:00 +5°C° 0 mm 8 mps 739 mmHg 77%
    02:00 +4°C° 0 mm 8 mps 739 mmHg 75%
    03:00 +4°C° 0 mm 8 mps 738 mmHg 73%
    04:00 +4°C° 0 mm 8 mps 738 mmHg 71%
    05:00 +4°C° 0 mm 8 mps 738 mmHg 69%
    06:00 +2°C° 0 mm 8 mps 738 mmHg 67%
    07:00 +4°C° 0 mm 7 mps 738 mmHg 63%
    08:00 +4°C° 0 mm 7 mps 738 mmHg 59%
    09:00 +4°C° 0 mm 6 mps 738 mmHg 54%
    10:00 +7°C° 0 mm 6 mps 738 mmHg 49%
    11:00 +8°C° 0 mm 6 mps 738 mmHg 44%
    12:00 +9°C° 0 mm 7 mps 738 mmHg 39%
    13:00 +10°C° 0 mm 6 mps 738 mmHg 39%
    14:00 +10°C° 0 mm 6 mps 738 mmHg 38%
    15:00 +12°C° 0 mm 5 mps 738 mmHg 38%
    16:00 +9°C° 0 mm 5 mps 738 mmHg 43%
    17:00 +8°C° 0 mm 5 mps 739 mmHg 48%
    18:00 +7°C° 0 mm 4 mps 739 mmHg 53%
    19:00 +7°C° 0 mm 4 mps 739 mmHg 55%
    20:00 +6°C° 0 mm 4 mps 740 mmHg 57%
    21:00 +7°C° 0 mm 3 mps 740 mmHg 58%
    22:00 +7°C° 0 mm 3 mps 740 mmHg 60%
    23:00 +5°C° 0 mm 3 mps 740 mmHg 61%
    Show more